COSMOS 860

导读

COSMOS 860是独联体(CIS)继承自苏联资产的卫星,1976年10月17日发射入轨,隶属于苏联“宇宙”(COSMOS)卫星系列。该系列是冷战时期苏联规模最大的卫星集群,多数为军用卫星,涵盖侦察、通信等任务,部分承担科研试验任务,该卫星也反映了当时苏联航天技术发展与太空战略部署。

Basic Information
目录编号:
9486
目录名称:
COSMOS 860
国际标识:
1976-103A
轨道中心:
EARTH
卫星名称:
COSMOS 860
卫星全名:
--
卫星状态:
在轨 (已飞行18220 天)
发射日期:
1976-10-17 UTC
国别 :
俄罗斯(独联体) (CIS)
星等 :
--
Orbit Information
数据来源 国际轨道数据 AOE轨道数据
星历时间 2026-09-05T18:15:01+0800
7小时前
查看轨道信息
2026-09-03T07:00:00+0800
2天前
查看轨道信息
半长轴 7336.997km 7336.989km
偏心率 0.0062304 0.0061822
轨道倾角 64.703° 64.702°
近地点辐角 195.603° 196.529°
升交点赤经 4.089° 10.524°
平近点角 164.311° 126.635°
近地点 913.147km 913.493km
远地点 1004.573km 1004.211km
周期 104.241分钟 104.240分钟
每日圈数 13.814187 13.814209
Detailed Information
使用方式:
暂无
2D Orbit Map
3D Orbit Map
Orbit Altitude Analysis Chart
Orbit Inclination Analysis Chart
Orbit Comprehensive Analysis Chart
View Comprehensive Chart
Conjunction Data List
Event ID Objects TCA Miss Dist (km) Collision Risk Probability Collision Risk Index (CRI) Action
CDM_260907-234300-948601-823222
2026-09-07T
23:43:28+0000
2.406 km
极远距离
1.870826E-6 低风险 0.4
CDM_260906-221800-948606-557023
2026-09-06T
22:18:42+0000
2.683 km
极远距离
1.077353E-6 低风险 0.36